Willow Run Airport
KYIP : now visible

Airfield :











YOU CAN JOIN US ON...

 
LOGIN :

Register | Disclaimer

   EN    FR    IT 

 









Legend :    VFR   Marginal VFR   IFR   Intensive IFR   Very Intensive IFR
Visi :
Ceiling :
>= 8 km
>= 3000ft
5 to 8 km
1000 to 3000 ft
1500m to 5 km
500 to 1000 ft
800 to 1500m
200 to 500 ft
< 800m
< 200 ft
Symbols :   Thunderstorms  Fog  Heavy snow  Heavy precipitations  Wind > 20 kt






- Airport Elevation : 716 ft
- IATA code : YIP


KYIP - Willow Run

CURRENT METAR :
  • 170653Z 00000KT 10SM CLR 15/13 A3013 RMK AO2 SLP197 T01500128

EXPIRED METARs :
  • 170553Z 00000KT 10SM CLR 14/12 A3013 RMK AO2 SLP197 T01440122 10206 20144 55005
  • 170453Z 00000KT 10SM CLR 15/12 A3012 RMK AO2 SLP194 T01500122 402830133

TAF KYIP
Valid from the 17 at 06:00 until the 18 at 06:00 UTC


170535Z 1706/1806 15003KT P6SM SKC
FM170900 12002KT 2SM BR SCT002
FM171300 20004KT P6SM SKC
FM171600 21006KT P6SM SCT045
FM172300 20005KT P6SM FEW050
KZOB FIR / North America



MET'MAP, your aeronautical weather chart ! - Copyright ORBIFLY December 2007 - Disclaimer

ORBIFLY MET'MAP TEAM :

Programming & Development : Alexandra Zaïnal
Concept & original design : Baudouin d'Aumeries
Assistance for programming : Marc-Olivier Méhu
Technical & hardware support : Manuel Goepfert

Contact : metmap@orbifly.com




SOURCES & CREDITS :

   NOAA       Earth
Advisory